ARIANE 5 DEB (SYLDA), 29164

Orbit data source: Space-Track

ARIANE 5 DEB (SYLDA), 29164 is space debris originally from a launch on Sat, 27 May 2006 UTC launched from the French Guiana (FRGUI). Debris objects in space refer to the collection of defunct objects orbiting the Earth. Examples of debris include non-operational satellites, rocket bodies, and fragments generated from explosions, collisions, or faulty payload assembly.

Loading next visibility...
ARIANE 5 DEB (SYLDA) details
Identifier
29164, 2006-020C
Orbit
Active
Last TLE update16 hours ago
Origin
Flag of FRArianespace (FR)
ManufacturerEADS/Bremen
MissionSpacecraft
Bus & MotorSYLDA 5, Unknown motor
Mass440 kg wet, 440 kg dry
Launch date (UTC)
2006-05-27 (19 years ago)
Launch vehicleUnknown
Launch site
French Guiana (FRGUI)
Object type
Payload
Rocket body
Debris
Shape & HBRCyl, 5.8 m
Radar Cross Section28.451 m², Large (>1 m²)

Expand to show TLE details & history

TLE from 16 hours ago
0 ARIANE 5 DEB (SYLDA)
1 29164U 06020C   25035.62980184  .00171051  00000-0  60045-2 0  9995
2 29164   6.8162 251.3830 3112744 270.2493  54.7127  9.16835319352571
Epoch: 2025-02-04T15:06Z
Definitive object data (Epoch: 2025-02-04T15:06:54.878Z)
Latitude-0°
Longitude-110.378°
Altitude2,316.954 km
Speed7.097 km/s
True Right ascension16h 45m 31s
True Declination0° 00' 00"
Sunlit
Object was in daylight at TLE epoch
Visualization TLE readout
Latitude-0.28597°
Longitude-114.62836°
Altitude2,038.561 km
Speed7.307 km/s
Apparent Right ascension18h 00m 31s
Apparent Declination-19° 52' 20"
Sunlit
Object is in daylight
Visualization observer readout
Local Sidereal Time08:49:12
Azimuth73.539° E
Elevation-48.828°
Doppler factor1
Orbital elements
Apogee altitude6,273.191 km
Perigee altitude266.768 km
Semi-major axis9,648.116 km
Eccentricity0.3112744
Inclination6.8162°
RAAN251.383°
Arg. of periapsis270.2493°
True anomaly89.76367°
Mean anomaly54.7127°
Eccentric anomaly71.63951°
Mean motion2.29023 °/min
BSTAR0.0060045
Orbital period157.19 mins
Loading maneuver chart data...
Loading historical data...
Loading historical data...
Loading historical data...
Loading historical data...
Loading historical data...
Loading historical data...
Loading historical data...
Other satellites on launch #20 in the year 2006 (2006-05-27 UTC)

ARIANE 5 DEB (SYLDA) Visibility forecast

Observer location: undefined°, undefined

Span
Click to sort rows by Start time (UTC) header in descending order
Start Az.
Max El. time (UTC)
Max El. Az.
Max El.
End time (UTC)
End Az.
45 mins2025-02-05 17:26:58.441Z205.075° SW2025-02-05 17:43:58.441Z162.528° S22.674°2025-02-05 18:11:58.441Z120.913° SE
58 mins2025-02-05 20:18:58.441Z228.165° WSW2025-02-05 20:46:58.441Z180.223° SSW27.504°2025-02-05 21:16:58.441Z131.109° SE
46 mins2025-02-05 23:22:58.441Z238.333° WSW2025-02-05 23:49:58.441Z198.998° SSW22.558°2025-02-06 00:08:58.441Z154.988° SSE
|